User: anonymous   Login
Location: Unspecified
(49.2170°N, 0.0000°E)
Time: 23:48:01
(UTC+00:00)
Language:

Vanguard 3 - Orbit

View from above orbital plane
View from above orbital plane
View from above satellite
View from above satellite

Ground track
Ground track

The orbit data is extracted from the following two-line orbital elements,

1 00020U 59007A   21129.58207560 -.00000011  00000-0 -15866-4 0  9995
2 00020  33.3467 100.0937 1666506 196.9174 156.8572 11.55805187268345
Epoch (UTC): 09 May 2021 13:58:11
Eccentricity: 0.1666506
inclination: 33.3467°
perigee height: 508 km
apogee height: 3262 km
right ascension of ascending node: 100.0937°
argument of perigee: 196.9174°
revolutions per day: 11.55805187
mean anomaly at epoch: 156.8572°
orbit number at epoch: 26834

The dashed part of the orbit path shows where the satellite is in the earth's shadow,  

DLR